Y05 SONEAR Wykrota-CEAMIG, Serra da Piedade. Observer C. Jacques. 0.45-m
f/2.9 reflector + CMO.
Orbital elements:
2024 GL Earth MOID = 0.0089 AU
Epoch 2024 Mar. 31.0 TT = JDT 2460400.5 Veres
M 34.55126 (2000.0) P Q
n 0.64026528 Peri. 257.93891 -0.04687778 -0.99823090
a 1.3332024 Node 194.89467 +0.96288591 -0.03541469
e 0.5579621 Incl. 8.17991 +0.26580670 -0.04775854
P 1.54 H 24.96 G 0.15 U 7
Residuals in seconds of arc
240403 M22 0.0 0.1- 240404 703 0.1+ 0.3- 240404 C95 0.1+ 0.4+
240403 M22 0.3+ 0.2- 240404 V21 0.3+ 0.7- 240404 C95 0.0 0.1-
240403 M22 0.3- 0.8+ 240404 V21 0.2+ 0.5- 240404 L76 0.3- 0.1-
240404 V27 1.4+ 0.9+ 240404 Q06 0.1- 0.6- 240404 C95 0.2+ 0.5-
240404 I52 0.1- 0.2+ 240404 Q06 0.1+ 1.3- 240404 950 0.1- 0.3-
240404 I52 0.1- 0.0 240404 Q06 0.2- 0.0 240404 L47 1.0+ 1.0-
240404 I52 0.0 0.0 240404 O46 0.2- 0.1- 240404 C95 0.2- 0.2+
240404 I52 0.1- 0.1+ 240404 O46 0.2- 0.0 240404 L76 0.2- 0.3-
240404 V27 0.2+ 0.7+ 240404 900 0.3- 0.2- 240404 C95 0.4+ 0.3-
240404 V27 0.0 0.0 240404 O46 0.0 0.1- 240404 C95 0.3- 0.1+
240404 V27 1.3- 0.4- 240404 900 0.2- 0.2- 240404 C95 0.3- 0.4-
240404 858 0.2- 0.3+ 240404 900 0.4- 0.1+ 240404 L47 1.4+ 0.2+
240404 V27 0.2- 0.4+ 240404 C40 0.5- 0.4- 240404 C95 0.4- 0.1-
240404 858 0.1- 0.3+ 240404 C40 0.2- 0.5+ 240404 950 0.3- 0.2-
240404 858 0.1- 0.4+ 240404 C40 0.5- 1.1+ 240404 C95 0.2- 0.1+
240404 H36 0.1+ 0.1- 240404 M28 0.7- 0.4+ 240404 950 0.1- 0.1+
240404 H36 0.1+ 0.0 240404 M28 0.8- 0.2+ 240405 033 0.3- 0.2-
240404 G96 0.1- 0.2+ 240404 C40 0.0 0.1+ 240405 033 0.2- 0.1-
240404 H36 0.2+ 0.2+ 240404 M28 0.5- 0.1- 240405 033 0.1- 0.2+
240404 G96 0.0 0.0 240404 C40 0.3- 0.0 240405 033 0.2- 0.1-
240404 V21 0.2+ 0.5- 240404 C40 0.1- 0.1+ 240405 Y05 0.3- 0.1+
240404 G96 0.0 0.0 240404 L47 0.5+ 0.1+ 240405 Y05 0.4- 0.1-
240404 V21 0.2+ 0.8- 240404 L47 0.3- 0.1+ 240405 Y05 0.4- 0.1+
240404 G96 0.1- 0.0 240404 B72 0.6- 0.4- 240405 W94 0.0 0.1-
240404 V21 0.1+ 0.8- 240404 B72 0.2- 0.3- 240405 W94 0.1+ 0.1-
240404 V21 0.0 1.1- 240404 B72 0.1+ 0.2- 240405 W94 0.2+ 0.4-
240404 V21 0.2+ 1.0- 240404 958 0.8+ 0.4+ 240405 718 0.6+ 0.8+
240404 V21 0.6+ 0.9- 240404 958 0.1- 0.8+ 240405 718 0.6+ 0.6-
240404 V21 0.5+ 0.6- 240404 958 0.4- 0.8- 240405 718 0.1- 0.4+
240404 703 0.1- 0.2+ 240404 L76 0.3- 0.2-
240404 V21 0.1+ 0.8- 240404 L76 0.2- 0.3-
Ephemeris:
2024 GL a,e,i = 1.33, 0.56, 8 q = 0.5893
Date TT R. A. (2000) Decl. Delta r Elong. Phase V
2024 03 06 00 33 42.9 -10 58 15 0.2683 0.7504 22.1 150.2 29.9
...
2024 03 21 00 33 26.5 -15 42 14 0.1055 0.8962 17.7 160.2 30.9
...
2024 03 29 00 02 14.5 -33 34 44 0.02820 0.9762 37.6 141.4 24.2
...
2024 04 04 13 09 59.6 -08 57 50 0.03551 1.0355 174.6 5.2 18.2
2024 04 05 13 04 04.5 -04 54 51 0.04489 1.0453 177.8 2.1 18.6
2024 04 06 13 00 14.9 -02 16 21 0.05445 1.0550 175.8 3.9 19.1
...
2024 04 12 12 51 15.8 +03 56 24 0.1137 1.1127 165.2 13.3 21.2
...
2024 04 20 12 48 48.6 +05 55 09 0.1964 1.1873 156.6 19.7 22.8
...
2024 05 05 12 51 31.2 +06 02 52 0.3640 1.3189 143.4 27.1 24.6
M. P. C. Staff (C) Copyright 2024 MPC M.P.E.C. 2024-G52
More information about the Iaude
mailing list